Zurück zum Katalog

FALCON 9 DEB

AktivVLEO
NORAD 48608·DEBRIS·🇺🇸 United States

Gestartet May 15, 2021 von Cape Canaveral Space Force Station

Loading…

Nächste Überflüge (nächste 24 Stunden)

TLE

AktuellSource: Space-Track

Epoche: Sep 14, 2026, 09:53 UTC

1 48608U 21041BH  26257.41212849  .00002874  00000-0  17140-3 0  9994
2 48608  53.0289  48.5827 0010755  54.8779 305.3219 15.14325539292944

Verfolge FALCON 9 DEB in Echtzeit mit AllMySat

Download on the App Store